This demonstration page uses our WeatherBlox Daily Observations layout. Learn more.

39.29038, -76.61219

Hourly Observations for March 10, 2019

Temp ( °F °C ) Dew Point ( °F °C ) Humidity (%) Winds ( mph kmh ) Pressure ( in mb ) Visibility ( mi km ) Precip ( " mm )
12:54 am 00:54 undefined 37 2.8 34 1.1 89 89 undefined N/A 30.18 1022 N/A 0.07 1.778
1:54 am 01:54 undefined 38 3.3 35 1.7 89 89 undefined N/A 30.19 1022 N/A 0.12 3.048
3:54 am 03:54 undefined 38 3.3 35 1.7 89 89 undefined N/A 30.12 1020 N/A 0.19 4.826
4:54 am 04:54 undefined 39 3.9 36 2.2 89 89 undefined N/A 30.09 1019 N/A 0.1 2.54
5:54 am 05:54 undefined 41 5 38 3.3 89 89 undefined N/A 30.11 1020 N/A 0 0
6:54 am 06:54 undefined 41 5 38 3.3 89 89 undefined N/A 30.08 1019 N/A 0.02 0.508
7:54 am 07:54 undefined 42 5.6 39 3.9 89 89 undefined N/A 30.07 1018 N/A 0.01 0.254
8:54 am 08:54 undefined 42 5.6 40 4.4 92 92 undefined N/A 30.06 1018 N/A 0 0
9:54 am 09:54 undefined 43 6.1 40 4.4 89 89 undefined N/A 30.06 1018 N/A 0 0
10:54 am 10:54 undefined 45 7.2 42 5.6 90 90 undefined N/A 30.03 1017 N/A 0 0
11:54 am 11:54 undefined 47 8.3 42 5.6 83 83 undefined N/A 29.98 1015 N/A 0 0
12:54 pm 12:54 undefined 47 8.3 42 5.6 83 83 undefined N/A 29.96 1014 N/A 0 0
1:54 pm 13:54 undefined 49 9.4 43 6.1 80 80 undefined N/A 29.94 1014 N/A 0 0
2:54 pm 14:54 undefined 52 11.1 45 7.2 77 77 undefined N/A 29.93 1014 N/A 0 0
3:54 pm 15:54 undefined 53 11.7 45 7.2 74 74 undefined N/A 29.89 1012 N/A 0 0
4:54 pm 16:54 undefined 52 11.1 45 7.2 77 77 undefined N/A 29.89 1012 N/A 0 0
5:54 pm 17:54 undefined 53 11.7 45 7.2 74 74 undefined N/A 29.88 1012 N/A 0 0
6:54 pm 18:54 undefined 52 11.1 45 7.2 77 77 undefined N/A 29.88 1012 N/A 0 0
7:54 pm 19:54 undefined 51 10.6 45 7.2 80 80 undefined N/A 29.91 1013 N/A 0 0
8:54 pm 20:54 undefined 50 10 45 7.2 83 83 undefined N/A 29.93 1013 N/A 0 0
9:54 pm 21:54 undefined 49 9.4 44 6.7 83 83 undefined N/A 29.94 1014 N/A 0 0
10:54 pm 22:54 undefined 47 8.3 43 6.1 86 86 undefined N/A 29.97 1015 N/A 0 0
11:54 pm 23:54 undefined 48 8.9 44 6.7 86 86 undefined N/A 30.01 1016 N/A 0 0

Powered by AerisWeather